GXA113 TJSJ-MDSD

Flight info

Callsign GXA113
Flight time 0h 47m
Altitude 32000
Route SJU RTE2 BQN B520 GOSUB GOSUB2H
Aircraft A320/M-SDE3FGHIRWY/LB1

Departure

Time 2026-04-28 23:57
Airport Luis Munoz Marin International Airport (TJSJ)

Arrival

Time 2026-04-29 00:45
Airport Las Américas International Airport (MDSD)
Time Latitude Longitude Altitude Speed Heading
2026-04-28 23:21 18.44034 -66.00480 18 ft 0 kts 177°
2026-04-28 23:32 18.44040 -66.00480 19 ft 4 kts 178°
2026-04-28 23:32 18.44067 -66.00481 19 ft 4 kts 172°
2026-04-28 23:33 18.44091 -66.00488 18 ft 4 kts 149°
2026-04-28 23:33 18.44109 -66.00506 18 ft 4 kts 107°
2026-04-28 23:33 18.44111 -66.00533 19 ft 4 kts 78°
2026-04-28 23:33 18.44103 -66.00560 19 ft 4 kts 65°
2026-04-28 23:34 18.44091 -66.00586 20 ft 4 kts 63°
2026-04-28 23:34 18.44085 -66.00598 22 ft 0 kts 67°
2026-04-28 23:37 18.44106 -66.00546 19 ft 18 kts 66°
2026-04-28 23:37 18.44133 -66.00388 18 ft 21 kts 73°
2026-04-28 23:37 18.44191 -66.00238 18 ft 19 kts 78°
2026-04-28 23:38 18.44104 -66.00164 18 ft 19 kts 159°
2026-04-28 23:38 18.43970 -66.00105 17 ft 23 kts 156°
2026-04-28 23:38 18.43819 -66.00038 17 ft 24 kts 156°
2026-04-28 23:38 18.43676 -65.99977 17 ft 19 kts 166°
2026-04-28 23:39 18.43567 -66.00003 17 ft 15 kts 237°
2026-04-28 23:39 18.43561 -66.00111 17 ft 16 kts 265°
2026-04-28 23:39 18.43530 -66.00222 17 ft 15 kts 214°
2026-04-28 23:39 18.43473 -66.00245 17 ft 15 kts 229°
2026-04-28 23:40 18.43465 -66.00367 17 ft 19 kts 271°
2026-04-28 23:40 18.43467 -66.00510 17 ft 17 kts 271°
2026-04-28 23:40 18.43467 -66.00571 17 ft 8 kts 268°
2026-04-28 23:40 18.43466 -66.00633 17 ft 8 kts 269°
2026-04-28 23:41 18.43465 -66.00696 17 ft 9 kts 270°
2026-04-28 23:41 18.43466 -66.00767 17 ft 13 kts 272°
2026-04-28 23:41 18.43467 -66.00846 17 ft 2 kts 267°
2026-04-28 23:47 18.43466 -66.00862 17 ft 7 kts 268°
2026-04-28 23:47 18.43466 -66.00877 17 ft 0 kts 268°
2026-04-28 23:53 18.43466 -66.00916 17 ft 10 kts 271°
2026-04-28 23:54 18.43466 -66.00992 17 ft 11 kts 269°
2026-04-28 23:54 18.43466 -66.01072 17 ft 11 kts 270°
2026-04-28 23:54 18.43467 -66.01160 17 ft 15 kts 270°
2026-04-28 23:54 18.43468 -66.01294 17 ft 17 kts 269°
2026-04-28 23:55 18.43471 -66.01408 17 ft 19 kts 286°
2026-04-28 23:55 18.43603 -66.01436 17 ft 23 kts
2026-04-28 23:55 18.43745 -66.01456 17 ft 19 kts 314°
2026-04-28 23:55 18.43761 -66.01527 17 ft 7 kts 291°
2026-04-28 23:56 18.43799 -66.01563 19 ft 10 kts 338°
2026-04-28 23:56 18.43858 -66.01546 17 ft 10 kts 69°
2026-04-28 23:56 18.43867 -66.01517 19 ft 0 kts 70°
2026-04-28 23:56 18.43868 -66.01515 19 ft 0 kts 69°
2026-04-28 23:57 18.43885 -66.01476 17 ft 21 kts 64°
2026-04-28 23:57 18.44086 -66.00944 19 ft 136 kts 68°
2026-04-28 23:57 18.44580 -65.99764 366 ft 199 kts 68°
2026-04-28 23:57 18.45204 -65.98380 1445 ft 222 kts 56°
2026-04-28 23:58 18.46438 -65.97266 2280 ft 250 kts 26°
2026-04-28 23:58 18.48188 -65.96926 3288 ft 266 kts 356°
2026-04-28 23:58 18.49995 -65.97462 4312 ft 275 kts 337°
2026-04-28 23:58 18.51554 -65.98625 5422 ft 278 kts 314°
2026-04-28 23:59 18.52572 -66.00361 6668 ft 282 kts 289°
2026-04-28 23:59 18.52797 -66.02414 7832 ft 285 kts 266°
2026-04-28 23:59 18.52619 -66.04497 9062 ft 286 kts 265°
2026-04-28 23:59 18.52424 -66.06597 10210 ft 290 kts 264°
2026-04-29 00:00 18.52218 -66.08787 10835 ft 311 kts 264°
2026-04-29 00:00 18.52004 -66.11099 11671 ft 321 kts 264°
2026-04-29 00:00 18.51793 -66.13436 12622 ft 326 kts 264°
2026-04-29 00:00 18.51579 -66.15834 13590 ft 332 kts 264°
2026-04-29 00:01 18.51365 -66.18273 14451 ft 337 kts 264°
2026-04-29 00:01 18.51148 -66.20741 15309 ft 340 kts 264°
2026-04-29 00:01 18.50929 -66.23237 16179 ft 344 kts 264°
2026-04-29 00:01 18.50706 -66.25759 17041 ft 348 kts 264°
2026-04-29 00:02 18.50475 -66.28312 17721 ft 352 kts 264°
2026-04-29 00:02 18.50241 -66.30889 17944 ft 353 kts 264°
2026-04-29 00:02 18.50010 -66.33461 18010 ft 353 kts 264°
2026-04-29 00:02 18.49782 -66.36031 18014 ft 352 kts 264°
2026-04-29 00:03 18.49554 -66.38601 18016 ft 352 kts 264°
2026-04-29 00:03 18.49326 -66.41171 18015 ft 352 kts 264°
2026-04-29 00:03 18.49096 -66.43740 18016 ft 352 kts 264°
2026-04-29 00:03 18.48865 -66.46308 18019 ft 352 kts 264°
2026-04-29 00:04 18.48632 -66.48876 18016 ft 352 kts 264°
2026-04-29 00:04 18.48398 -66.51447 18018 ft 353 kts 264°
2026-04-29 00:04 18.48240 -66.53182 18021 ft 352 kts 264°
2026-04-29 00:04 18.48005 -66.55753 18022 ft 352 kts 264°
2026-04-29 00:05 18.47771 -66.58322 18020 ft 352 kts 264°
2026-04-29 00:05 18.47623 -66.60866 18022 ft 352 kts 271°
2026-04-29 00:05 18.47730 -66.63479 18024 ft 353 kts 272°
2026-04-29 00:05 18.47845 -66.66056 18024 ft 353 kts 272°
2026-04-29 00:06 18.47958 -66.68637 18024 ft 353 kts 272°
2026-04-29 00:06 18.48069 -66.71187 18016 ft 353 kts 272°
2026-04-29 00:06 18.48182 -66.73770 18023 ft 353 kts 272°
2026-04-29 00:06 18.48295 -66.76352 18021 ft 353 kts 272°
2026-04-29 00:07 18.48406 -66.78929 18020 ft 353 kts 272°
2026-04-29 00:07 18.48515 -66.81509 18017 ft 353 kts 272°
2026-04-29 00:07 18.48626 -66.84095 18015 ft 353 kts 272°
2026-04-29 00:07 18.48737 -66.86673 18013 ft 353 kts 272°
2026-04-29 00:08 18.48856 -66.89257 18013 ft 353 kts 272°
2026-04-29 00:08 18.48979 -66.91842 18012 ft 353 kts 272°
2026-04-29 00:08 18.49101 -66.94427 18011 ft 353 kts 272°
2026-04-29 00:08 18.49218 -66.97012 18013 ft 353 kts 272°
2026-04-29 00:09 18.49334 -66.99599 18013 ft 353 kts 272°
2026-04-29 00:09 18.49453 -67.02186 18010 ft 354 kts 272°
2026-04-29 00:09 18.49573 -67.04776 18010 ft 354 kts 272°
2026-04-29 00:09 18.49691 -67.07364 18010 ft 354 kts 272°
2026-04-29 00:10 18.49807 -67.09951 18008 ft 354 kts 272°
2026-04-29 00:10 18.49880 -67.12541 18012 ft 353 kts 270°
2026-04-29 00:10 18.49861 -67.15130 18012 ft 354 kts 268°
2026-04-29 00:10 18.49792 -67.17722 18010 ft 353 kts 268°
2026-04-29 00:11 18.49706 -67.20311 18009 ft 353 kts 268°
2026-04-29 00:11 18.49626 -67.22902 18010 ft 353 kts 268°
2026-04-29 00:11 18.49496 -67.28081 18008 ft 354 kts 268°
2026-04-29 00:12 18.49442 -67.30668 18009 ft 354 kts 268°
2026-04-29 00:12 18.49392 -67.33258 18009 ft 354 kts 269°
2026-04-29 00:12 18.49343 -67.35847 18007 ft 354 kts 269°
2026-04-29 00:12 18.49293 -67.38438 18006 ft 354 kts 268°
2026-04-29 00:13 18.49241 -67.41028 18008 ft 354 kts 268°
2026-04-29 00:13 18.49187 -67.43620 18005 ft 354 kts 268°
2026-04-29 00:13 18.49133 -67.46212 18001 ft 354 kts 268°
2026-04-29 00:13 18.49078 -67.48807 18002 ft 353 kts 268°
2026-04-29 00:14 18.49021 -67.51398 18003 ft 353 kts 268°
2026-04-29 00:14 18.48964 -67.53986 18001 ft 354 kts 268°
2026-04-29 00:14 18.48909 -67.56540 18001 ft 354 kts 268°
2026-04-29 00:14 18.48853 -67.59132 18000 ft 354 kts 268°
2026-04-29 00:15 18.48798 -67.61719 18003 ft 354 kts 268°
2026-04-29 00:15 18.48742 -67.64308 18000 ft 354 kts 268°
2026-04-29 00:15 18.48684 -67.66901 17998 ft 354 kts 268°
2026-04-29 00:15 18.48626 -67.69494 18002 ft 354 kts 268°
2026-04-29 00:16 18.48568 -67.72088 18004 ft 354 kts 268°
2026-04-29 00:16 18.48508 -67.74678 18005 ft 354 kts 268°
2026-04-29 00:16 18.48446 -67.77269 18002 ft 353 kts 268°
2026-04-29 00:16 18.48386 -67.79852 18004 ft 353 kts 268°
2026-04-29 00:17 18.48329 -67.82436 18000 ft 353 kts 268°
2026-04-29 00:17 18.48274 -67.85022 18004 ft 353 kts 268°
2026-04-29 00:17 18.48216 -67.87603 18002 ft 353 kts 268°
2026-04-29 00:17 18.48155 -67.90181 17942 ft 350 kts 268°
2026-04-29 00:18 18.48093 -67.92702 17690 ft 339 kts 268°
2026-04-29 00:18 18.48034 -67.95147 17438 ft 330 kts 268°
2026-04-29 00:18 18.47980 -67.97531 17187 ft 323 kts 268°
2026-04-29 00:18 18.47927 -67.99886 16940 ft 321 kts 268°
2026-04-29 00:19 18.47874 -68.02230 16691 ft 319 kts 268°
2026-04-29 00:19 18.47824 -68.04567 16451 ft 318 kts 268°
2026-04-29 00:19 18.47776 -68.06894 16206 ft 317 kts 268°
2026-04-29 00:19 18.47729 -68.09214 15967 ft 316 kts 268°
2026-04-29 00:20 18.47680 -68.11525 15731 ft 315 kts 268°
2026-04-29 00:20 18.47630 -68.13833 15490 ft 314 kts 268°
2026-04-29 00:20 18.47584 -68.16129 15257 ft 313 kts 268°
2026-04-29 00:20 18.47539 -68.18417 15023 ft 312 kts 268°
2026-04-29 00:21 18.47491 -68.20702 14793 ft 311 kts 268°
2026-04-29 00:21 18.47439 -68.22978 14560 ft 311 kts 268°
2026-04-29 00:21 18.47388 -68.25250 14329 ft 310 kts 268°
2026-04-29 00:21 18.47339 -68.27487 14105 ft 309 kts 268°
2026-04-29 00:22 18.47290 -68.29777 13880 ft 308 kts 268°
2026-04-29 00:22 18.47242 -68.32032 13629 ft 308 kts 268°
2026-04-29 00:22 18.47193 -68.34280 13371 ft 307 kts 268°
2026-04-29 00:22 18.47143 -68.36523 13117 ft 305 kts 268°
2026-04-29 00:23 18.47093 -68.38754 12863 ft 304 kts 268°
2026-04-29 00:23 18.47042 -68.40948 12610 ft 303 kts 268°
2026-04-29 00:23 18.46990 -68.43191 12370 ft 302 kts 268°
2026-04-29 00:23 18.46941 -68.45399 12125 ft 301 kts 268°
2026-04-29 00:24 18.46892 -68.47599 11880 ft 300 kts 268°
2026-04-29 00:24 18.46843 -68.49793 11633 ft 299 kts 268°
2026-04-29 00:24 18.46794 -68.51980 11399 ft 298 kts 268°
2026-04-29 00:24 18.46745 -68.54161 11160 ft 297 kts 268°
2026-04-29 00:25 18.46696 -68.56331 10924 ft 296 kts 268°
2026-04-29 00:25 18.46647 -68.58495 10689 ft 295 kts 268°
2026-04-29 00:25 18.46598 -68.60650 10454 ft 294 kts 268°
2026-04-29 00:25 18.46547 -68.62804 10224 ft 294 kts 268°
2026-04-29 00:26 18.46495 -68.64952 9995 ft 293 kts 268°
2026-04-29 00:26 18.46441 -68.67093 9856 ft 292 kts 268°
2026-04-29 00:26 18.46388 -68.69231 9731 ft 292 kts 268°
2026-04-29 00:26 18.46332 -68.71375 9604 ft 292 kts 268°
2026-04-29 00:27 18.46276 -68.73510 9477 ft 292 kts 268°
2026-04-29 00:27 18.46224 -68.75643 9352 ft 291 kts 268°
2026-04-29 00:27 18.46170 -68.77772 9225 ft 291 kts 268°
2026-04-29 00:27 18.45950 -68.79885 9103 ft 290 kts 257°
2026-04-29 00:28 18.45458 -68.81946 8968 ft 290 kts 255°
2026-04-29 00:28 18.44963 -68.84003 8851 ft 289 kts 255°
2026-04-29 00:28 18.44477 -68.86035 8737 ft 289 kts 255°
2026-04-29 00:28 18.43987 -68.88087 8602 ft 289 kts 255°
2026-04-29 00:29 18.43601 -68.90158 8479 ft 288 kts 267°
2026-04-29 00:29 18.43740 -68.92262 8363 ft 288 kts 276°
2026-04-29 00:29 18.44003 -68.94355 8238 ft 288 kts 277°
2026-04-29 00:29 18.44275 -68.96443 8118 ft 288 kts 277°
2026-04-29 00:30 18.44546 -68.98531 7995 ft 287 kts 277°
2026-04-29 00:30 18.44730 -68.99941 7912 ft 287 kts 277°
2026-04-29 00:30 18.45218 -69.02669 7750 ft 287 kts 292°
2026-04-29 00:30 18.46190 -69.04496 7634 ft 287 kts 302°
2026-04-29 00:31 18.47325 -69.06215 7421 ft 284 kts 307°
2026-04-29 00:31 18.48542 -69.07855 6944 ft 282 kts 308°
2026-04-29 00:31 18.49760 -69.09478 6490 ft 281 kts 308°
2026-04-29 00:31 18.50967 -69.11092 6011 ft 279 kts 308°
2026-04-29 00:32 18.52164 -69.12700 5527 ft 278 kts 308°
2026-04-29 00:32 18.53350 -69.14301 5104 ft 276 kts 308°
2026-04-29 00:32 18.54489 -69.15931 4998 ft 277 kts 299°
2026-04-29 00:32 18.55012 -69.17870 5006 ft 278 kts 271°
2026-04-29 00:33 18.54648 -69.19848 4872 ft 275 kts 245°
2026-04-29 00:33 18.53513 -69.21425 4367 ft 271 kts 217°
2026-04-29 00:33 18.51852 -69.22334 3841 ft 269 kts 199°
2026-04-29 00:33 18.50093 -69.23002 3334 ft 268 kts 198°
2026-04-29 00:34 18.48341 -69.23642 3035 ft 266 kts 198°
2026-04-29 00:34 18.46584 -69.24278 3007 ft 268 kts 198°
2026-04-29 00:34 18.44817 -69.24915 3002 ft 269 kts 198°
2026-04-29 00:34 18.43046 -69.25562 3003 ft 269 kts 200°
2026-04-29 00:35 18.41319 -69.26325 2999 ft 270 kts 202°
2026-04-29 00:35 18.39606 -69.27128 2999 ft 269 kts 204°
2026-04-29 00:35 18.38076 -69.28258 2992 ft 272 kts 226°
2026-04-29 00:35 18.37093 -69.29950 3001 ft 273 kts 248°
2026-04-29 00:36 18.36401 -69.31813 3000 ft 273 kts 249°
2026-04-29 00:36 18.35733 -69.33644 2995 ft 258 kts 249°
2026-04-29 00:36 18.35115 -69.35342 2995 ft 239 kts 249°
2026-04-29 00:36 18.34541 -69.36919 3000 ft 222 kts 248°
2026-04-29 00:37 18.34004 -69.38389 2999 ft 207 kts 249°
2026-04-29 00:37 18.33497 -69.39771 3003 ft 201 kts 249°
2026-04-29 00:37 18.32995 -69.41139 3019 ft 200 kts 248°
2026-04-29 00:37 18.32494 -69.42503 3016 ft 200 kts 248°
2026-04-29 00:38 18.31992 -69.43866 3001 ft 200 kts 248°
2026-04-29 00:38 18.31489 -69.45231 2996 ft 200 kts 248°
2026-04-29 00:38 18.30987 -69.46595 3003 ft 200 kts 248°
2026-04-29 00:38 18.30482 -69.47964 3003 ft 200 kts 248°
2026-04-29 00:39 18.29988 -69.49304 2996 ft 193 kts 249°
2026-04-29 00:39 18.29510 -69.50602 3001 ft 189 kts 248°
2026-04-29 00:39 18.29037 -69.51887 3005 ft 188 kts 248°
2026-04-29 00:39 18.28573 -69.53170 3009 ft 188 kts 250°
2026-04-29 00:40 18.28264 -69.54500 3002 ft 189 kts 261°
2026-04-29 00:40 18.28181 -69.55874 3002 ft 188 kts 275°
2026-04-29 00:40 18.28592 -69.57158 3003 ft 186 kts 304°
2026-04-29 00:40 18.29292 -69.58296 3012 ft 185 kts 305°
2026-04-29 00:41 18.29997 -69.59428 2980 ft 185 kts 305°
2026-04-29 00:41 18.30467 -69.60181 2822 ft 185 kts 305°
2026-04-29 00:41 18.31402 -69.61678 2496 ft 181 kts 304°
2026-04-29 00:41 18.32174 -69.62701 2248 ft 177 kts 322°
2026-04-29 00:42 18.33193 -69.63288 2077 ft 158 kts 345°
2026-04-29 00:42 18.34165 -69.63649 1999 ft 139 kts 343°
2026-04-29 00:42 18.35037 -69.63982 1829 ft 131 kts 344°
2026-04-29 00:42 18.35885 -69.64306 1591 ft 129 kts 344°
2026-04-29 00:43 18.36732 -69.64620 1301 ft 128 kts 345°
2026-04-29 00:43 18.37572 -69.64898 1034 ft 126 kts 347°
2026-04-29 00:43 18.38406 -69.65187 794 ft 125 kts 342°
2026-04-29 00:43 18.39212 -69.65500 639 ft 124 kts 345°
2026-04-29 00:44 18.40026 -69.65788 462 ft 123 kts 345°
2026-04-29 00:44 18.40830 -69.66090 279 ft 123 kts 342°
2026-04-29 00:44 18.41631 -69.66397 112 ft 124 kts 343°
2026-04-29 00:44 18.42404 -69.66678 68 ft 101 kts 345°
2026-04-29 00:45 18.42886 -69.66857 70 ft 39 kts 338°
2026-04-29 00:45 18.42933 -69.66910 69 ft 12 kts 284°
2026-04-29 00:45 18.42937 -69.67055 69 ft 24 kts 271°
2026-04-29 00:45 18.42947 -69.67207 61 ft 14 kts 268°
2026-04-29 00:46 18.42950 -69.67233 60 ft 12 kts 286°
2026-04-29 00:46 18.42969 -69.67347 57 ft 15 kts 268°
2026-04-29 00:46 18.42954 -69.67417 60 ft 6 kts 249°
2026-04-29 00:46 18.42947 -69.67434 63 ft 1 kts 250°
2026-04-29 00:47 18.42946 -69.67439 62 ft 0 kts 250°